This is the latest recevied weather packets stored in our database for station/object KC3BHK-2. If no packets are shown the sender has not sent any weather packets the latest 10 day(s).
| Time | Temp. | Humidity | Pressure | Rain* | Wind** | Luminosity | Snow |
|---|---|---|---|---|---|---|---|
| 1777492209 | 15° C | - | - | 0 mm | 3.13 m/s, 127° | - | - |
| 1777491904 | 15° C | - | - | 0 mm | 2.68 m/s, 138° | - | - |
| 1777491599 | 15° C | - | - | 0 mm | 2.24 m/s, 221° | - | - |
| 1777491294 | 15° C | - | - | 0 mm | 0.89 m/s, 120° | - | - |
| 1777490682 | 15° C | - | - | 0 mm | 1.79 m/s, 149° | - | - |
| 1777490375 | 15.56° C | - | - | 0 mm | 1.79 m/s, 115° | - | - |
| 1777490070 | 15° C | - | - | 0 mm | 2.24 m/s, 124° | - | - |
| 1777489765 | 15° C | - | - | 0 mm | 0.45 m/s, 94° | - | - |
| 1777489460 | 14.44° C | - | - | 0 mm | 0 m/s | - | - |
| 1777489152 | 15° C | - | - | 0 mm | 1.34 m/s, 139° | - | - |
| 1777488847 | 14.44° C | - | - | 0 mm | 1.79 m/s, 115° | - | - |
| 1777488543 | 14.44° C | - | - | 0 mm | 0 m/s | - | - |
| 1777488238 | 14.44° C | - | - | 0 mm | 1.34 m/s, 165° | - | - |
| 1777487933 | 15° C | - | - | 0 mm | 1.34 m/s, 120° | - | - |
| 1777487321 | 15° C | - | - | 0 mm | 1.34 m/s, 128° | - | - |
| 1777487016 | 14.44° C | - | - | 0 mm | 2.68 m/s, 125° | - | - |
| 1777486407 | 14.44° C | - | - | 0 mm | 2.24 m/s, 146° | - | - |
| 1777486102 | 14.44° C | - | - | 0 mm | 2.24 m/s, 139° | - | - |
| 1777485798 | 14.44° C | - | - | 0 mm | 1.34 m/s, 114° | - | - |
| 1777485489 | 14.44° C | - | - | 0 mm | 2.24 m/s, 149° | - | - |
| 1777485184 | 15° C | - | - | 0 mm | 3.13 m/s, 155° | - | - |
| 1777484880 | 14.44° C | - | - | 0 mm | 1.79 m/s, 142° | - | - |
| 1777484575 | 14.44° C | - | - | 0 mm | 3.13 m/s, 156° | - | - |
| 1777484269 | 15° C | - | - | 0 mm | 1.79 m/s, 127° | - | - |
| 1777483965 | 15° C | - | - | 0 mm | 2.68 m/s, 121° | - | - |
* Rain latest hour (hover to see other rain measurements)
** Current wind speed in m/s (hover to see current wind gust speed)